Location: Brabourne
(51.1333°N, 1.0000°E)
Time: 21:03:30
(UTC+00:00)

Meteor 1-28 Rocket - Pass Details

Date: 20 June 2021
Orbit: 502 x 523 km, 97.4° (Epoch: 01 August)

Event Time Altitude Azimuth Distance (km) Brightness Sun altitude
Exits shadow 02:45:50 - 183° (S) 2,287 6.0 -6.8°
Reaches altitude 10° 02:47:08 10° 187° (S) 1,756 5.4 -6.6°
Maximum altitude 02:50:47 45° 261° (W) 726 3.6 -6.3°
Drops below altitude 10° 02:54:28 10° 335° (NNW) 1,775 6.3 -5.9°
Sets 02:56:40 0° 342° (NNW) 2,669 7.3 -5.7°
